Regional Weather Roundup
Issued by NWS

Home | Current Version | Previous Version | Graphics & Text | Print | Product List | Glossary On
Versions: 1 2 3 4 5 6 7 8 9 10 11 12 13 14 15 16 17 18 19 20 21 22 23 24 25 26 27 28 29 30 31 32 33 34 35 36 37 38 39 40 41 42 43 44 45 46 47 48 49 50
000
ASUS43 KMKX 262359
RWRWI

WISCONSIN REGIONAL WEATHER ROUNDUP
NATIONAL WEATHER SERVICE MILWAUKEE/SULLIVAN WI
600 PM CST MON JAN 26 2015

NOTE: "FAIR" INDICATES FEW OR NO CLOUDS BELOW 12,000 FEET WITH NO
SIGNIFICANT WEATHER AND/OR OBSTRUCTIONS TO VISIBILITY.

WIZ001-002-006>008-014>016-023>028-270100-
NORTHWEST WISCONSIN

CITY           SKY/WX    TMP DP  RH WIND       PRES   REMARKS
SUPERIOR ARPT  CLOUDY    29  28  95 CALM      29.84R FOG
ASHLAND        CLOUDY    25  22  88 CALM      29.84R
6HR MIN TEMP:  24; 6HR MAX TEMP:  26; 6HR PCP:  0.01;

HAYWARD        CLOUDY    25  22  88 N5        29.81R WCI  19
6HR MIN TEMP:  22; 6HR MAX TEMP:  26; 6HR PCP: TRACE;

SIREN          CLOUDY    34  33  96 CALM      29.81R
CUMBERLAND     CLOUDY    28  27  93 CALM      29.80R FOG
RICE LAKE      MIX PCPN  27  25  93 CALM      29.82R
CHETEK         LGT SNOW  26  25  96 CALM      29.81R
LADYSMITH      LGT SNOW  24  23  94 CALM      29.81R
EAU CLAIRE     CLOUDY    27  24  89 E3        29.82R
6HR MIN TEMP:  24; 6HR MAX TEMP:  27; 6HR PCP:  0.01;

MENOMONIE      MIX PCPN  30  28  94 CALM      29.81R
NEW RICHMOND   CLOUDY    37  31  78 N6        29.81R WCI  33
OSCEOLA        CLOUDY    38  32  78 NW3       29.84R
$$

WIZ003>005-009-010-017-018-270100-
NORTH CENTRAL WISCONSIN

CITY           SKY/WX    TMP DP  RH WIND       PRES   REMARKS
MANITOWISH WTR LGT SNOW  19  17  91 S5        29.78R WCI  12
ARBOR VITAE    LGT SNOW  22  19  87 S5        29.79R WCI  15
WOODRUFF       LGT SNOW  22  19  87 S5        29.79R WCI  15
RHINELANDER    LGT SNOW  19  16  88 SE5       29.81R FOG     WCI  12
6HR MIN TEMP:  17; 6HR MAX TEMP:  19; 6HR PCP:  0.03;

EAGLE RIVER    FLURRIES  20  16  84 CALM      29.80R
LAND O LAKES   LGT SNOW  20  17  87 S5        29.81R WCI  14
PHILLIPS       CLOUDY    20  19  93 SE3       29.79R
TOMAHAWK       LGT SNOW  19  17  91 CALM      29.81R
MEDFORD        LGT SNOW  20  19  95 CALM      29.79R
MERRILL        LGT SNOW  21  18  91 CALM      29.82R
$$

WIZ029-030-035-036-043>047-270100-
CENTRAL WISCONSIN

CITY           SKY/WX    TMP DP  RH WIND       PRES   REMARKS
WAUSAU         CLOUDY    21  18  88 SE6       29.82R WCI  13
6HR MIN TEMP:  18; 6HR MAX TEMP:  21; 6HR PCP:  0.02;

MOSINEE        NOT AVBL
MARSHFIELD     CLOUDY    23  20  88 S6        29.81R WCI  16
6HR MIN TEMP:  20; 6HR MAX TEMP:  23; 6HR PCP:  0.01;

STEVENS POINT  CLOUDY    20  19  95 SE3       29.83S
WAUPACA        CLOUDY    26  23  89 SE3       29.86R
WAUTOMA        NOT AVBL
WISC RAPIDS    FRZ RAIN  23  20  88 SE3       29.85R FOG
6HR MIN TEMP:  21; 6HR MAX TEMP:  23; 6HR PCP:  0.02;

CAMP DOUGLAS   NOT AVBL
$$

WIZ011>013-019>022-031-037>040-048>050-270100-
NORTHEAST WISCONSIN

CITY           SKY/WX    TMP DP  RH WIND       PRES   REMARKS
ANTIGO         FLURRIES  19  18  95 S6        29.82R WCI  11
SHAWANO        FLURRIES  26  22  82 CALM      29.87R
OCONTO         CLOUDY    25  22  87 CALM      29.89R
STURGEON BAY   CLOUDY    25  18  74 SE9       29.91R WCI  15
6HR MIN TEMP:  25; 6HR MAX TEMP:  25;

GREEN BAY      CLOUDY    25  20  81 SE6       29.88R WCI  18
6HR MIN TEMP:  24; 6HR MAX TEMP:  26; 6HR PCP:  0.02;

MANITOWOC      NOT AVBL
APPLETON       CLOUDY    25  19  80 S7        29.87R WCI  17
CLINTONVILLE   FLURRIES  25  21  86 S6        29.86R WCI  18
OSHKOSH        CLOUDY    24  20  84 SE7       29.86R WCI  16
6HR MIN TEMP:  23; 6HR MAX TEMP:  25; 6HR PCP:  0.05;

$$

WIZ032>034-041-042-053>061-270100-
SOUTHWEST WISCONSIN

CITY           SKY/WX    TMP DP  RH WIND       PRES   REMARKS
LA CROSSE      CLOUDY    30  26  85 S5        29.84R WCI  25
6HR MIN TEMP:  26; 6HR MAX TEMP:  30; 6HR PCP: TRACE;

SPARTA         CLOUDY    27  26  96 CALM      29.84R
VIROQUA        CLOUDY    26  26 100 CALM      29.80R
BOSCOBEL       CLOUDY    27  24  89 NE3       29.85R FOG
6HR MIN TEMP:  24; 6HR MAX TEMP:  27; 6HR PCP: TRACE;

PRAIRIE DU CHI CLOUDY    29  25  86 E6        29.83R FOG     WCI  23
PLATTEVILLE    CLOUDY    26  25  96 SE5       29.82R WCI  20
$$

WIZ056-057-062-063-064-067-068-270100-
SOUTH CENTRAL WISCONSIN

CITY           SKY/WX    TMP DP  RH WIND       PRES   REMARKS
REEDSBURG      CLOUDY    23  22  96 CALM      29.83R
BARABOO/DELLS  CLOUDY    22  20  91 S7        29.82R WCI  14
LONE ROCK      NOT AVBL
MINERAL POINT  CLOUDY    27  25  93 SE5       29.81S FOG     WCI  21
MADISON        FRZ DRZL  24  21  88 S7        29.85R FOG     WCI  16
6HR MIN TEMP:  20; 6HR MAX TEMP:  26; 6HR PCP:  0.03;

MIDDLETON      CLOUDY    25  24  93 S7        29.85R WCI  17
WATERTOWN      CLOUDY    24  24 100 S5        29.85R FOG     WCI  18
MONROE         CLOUDY    25  23  93 S8        29.83R FOG     WCI  16
JANESVILLE     CLOUDY    27  25  93 S6        29.86R FOG     WCI  20
$$

WIZ051-052-058>065-066-070>072-270100-
SOUTHEAST WISCONSIN

CITY           SKY/WX    TMP DP  RH WIND       PRES   REMARKS
MILWAUKEE      LGT SNOW  25  20  81 S5        29.90R WCI  19
6HR MIN TEMP:  25; 6HR MAX TEMP:  28; 6HR PCP:  0.01;

WAUKESHA       CLOUDY    23  19  86 SE7       29.88R WCI  15
MILWAUKEE/TIMM FLURRIES  25  19  80 SE7       29.88R WCI  17
RACINE         LGT SNOW  26  21  81 S5        29.91R WCI  20
6HR MIN TEMP:  26; 6HR MAX TEMP:  28; 6HR PCP: TRACE;

BURLINGTON     CLOUDY    23  22  95 S5        29.88R FOG     WCI  17
KENOSHA        CLOUDY    26  21  81 S5        29.89R WCI  20
6HR MIN TEMP:  26; 6HR MAX TEMP:  28; 6HR PCP: TRACE;

FOND DU LAC    LGT SNOW  25  20  81 SE9       29.86R WCI  15
6HR MIN TEMP:  24; 6HR MAX TEMP:  25; 6HR PCP:  0.02;

SHEBOYGAN      CLOUDY    26  20  77 S6        29.88R WCI  19
6HR MIN TEMP:  25; 6HR MAX TEMP:  27; 6HR PCP: TRACE;

WEST BEND      LGT SNOW  25  21  86 SE3       29.87R
JUNEAU         MIX PCPN  24  22  94 SE8       29.87R WCI  15
$$

LSZ147-162-270100-
LAKE SUPERIOR

STATION/POSITION TIME  TEMP    WIND        PRES    WAVE
                       AIR SEA DIR/SP/G            HT/PER
                 (UTC) (F)     (DEG/KT/KT) (MB)    (FT/S)
DEVILS ISLAND    2300   25     300/  1/  2 1010.6R
PORT WING        2340   28      10/  4/  5 1010.8R
SAXON HARBOR     2300   25        CALM     1009.5R
$$

LMZ867-665-643>646-270100-
LAKE MICHIGAN

STATION/POSITION TIME  TEMP    WIND        PRES    WAVE
                       AIR SEA DIR/SP/G            HT/PER
                 (UTC) (F)     (DEG/KT/KT) (MB)    (FT/S)
NORTHPORT PIER   2319   25     130/ 14/ 18 1013.2R
SISTER BAY       2343   24     170/ 10/ 13   N/A
KEWAUNEE LAKESHO 2300   27     210/  3/  7 1011.1R
SHEBOYGAN LAKESH 2300   27     170/ 14/ 15 1012.9R
PORT WASHINGTON  2340   27     170/ 10/ 13 1012.9R
MILWAUKEE LAKESH 2300   26     160/ 10/ 13   N/A
KENOSHA   LAKESH 2300   26     160/ 12/ 14 1011.5S
$$

TC  - TEMPERATURE IN CELSIUS
VSB - VISIBILITY IN STATUTE MILES
WCI - WIND CHILL INDEX
HX  - HEAT INDEX




USA.gov is the U.S. government's official web portal to all federal, state and local government web resources and services.